| time (UTC) | temp C | wind direction | speed KPH | gust KPH | rain 1hr cm | rain 24hr cm | rain mn cm | humidity % | barometer mb |
| 20260507000000 | 6 | 45 | 4.8 | 17.7 | 0.00 | 1.30 | 1.30 | 91 | 1009.4 |
| 20260506234458 | 6 | 327 | 8.0 | 20.9 | 0.00 | 1.30 | 1.30 | 91 | 1009.3 |
| 20260506232958 | 7 | 352 | 9.7 | 20.9 | 0.00 | 1.30 | 1.30 | 91 | 1009.3 |
| 20260506224504 | 8 | 257 | 6.4 | 17.7 | 0.05 | 1.30 | 1.30 | 90 | 1008.6 |
| 20260506222958 | 8 | 319 | 8.0 | 17.7 | 0.05 | 1.30 | 1.30 | 89 | 1008.4 |
| 20260506214502 | 14 | 19 | 6.4 | 22.5 | 0.00 | 1.24 | 1.24 | 86 | 1007.4 |
| 20260506212959 | 15 | 269 | 4.8 | 14.5 | 0.03 | 1.24 | 1.24 | 88 | 1006.8 |
| 20260506211459 | 15 | 239 | 4.8 | 12.9 | 0.03 | 1.24 | 1.24 | 89 | 1006.5 |
| 20260506204458 | 15 | 249 | 4.8 | 14.5 | 0.03 | 1.24 | 1.24 | 90 | 1006.3 |
| 20260506202958 | 14 | 272 | 3.2 | 12.9 | 0.00 | 1.22 | 1.22 | 90 | 1006.3 |
| 20260506201458 | 13 | 255 | 4.8 | 11.3 | 0.00 | 1.22 | 1.22 | 90 | 1006.2 |
| 20260506200001 | 14 | 270 | 4.8 | 12.9 | 0.00 | 1.22 | 1.22 | 90 | 1006.6 |
| 20260506194459 | 14 | 146 | 4.8 | 11.3 | 0.00 | 1.22 | 1.22 | 90 | 1006.6 |
| 20260506193000 | 14 | 252 | 4.8 | 11.3 | 0.00 | 1.22 | 1.22 | 91 | 1006.6 |
| 20260506191459 | 13 | 159 | 4.8 | 12.9 | 0.00 | 1.22 | 1.22 | 91 | 1006.8 |
| 20260506185958 | 13 | 191 | 4.8 | 12.9 | 0.00 | 1.22 | 1.22 | 91 | 1006.8 |
| 20260506184458 | 13 | 195 | 4.8 | 12.9 | 0.05 | 1.22 | 1.22 | 91 | 1006.9 |
| 20260506182957 | 13 | 148 | 4.8 | 9.7 | 0.08 | 1.22 | 1.22 | 90 | 1007.0 |
| 20260506181459 | 13 | 201 | 4.8 | 14.5 | 0.10 | 1.22 | 1.22 | 90 | 1007.1 |
| 20260506180001 | 13 | 244 | 4.8 | 16.1 | 0.10 | 1.22 | 1.22 | 90 | 1007.2 |
| 20260506174459 | 13 | 162 | 6.4 | 16.1 | 0.10 | 1.17 | 1.17 | 90 | 1007.2 |
| 20260506172959 | 13 | 153 | 4.8 | 12.9 | 0.13 | 1.14 | 1.14 | 90 | 1007.2 |
| 20260506170000 | 13 | 159 | 4.8 | 16.1 | 0.13 | 1.12 | 1.12 | 90 | 1007.2 |
| 20260506164457 | 13 | 157 | 4.8 | 14.5 | 0.13 | 1.07 | 1.07 | 90 | 1007.2 |
| 20260506163001 | 13 | 137 | 4.8 | 14.5 | 0.15 | 1.02 | 1.02 | 90 | 1007.2 |
| 20260506161458 | 13 | 169 | 4.8 | 14.5 | 0.28 | 1.02 | 1.02 | 89 | 1007.0 |
| 20260506154500 | 12 | 141 | 3.2 | 9.7 | 0.38 | 0.94 | 0.94 | 89 | 1007.4 |
| 20260506151458 | 12 | 167 | 4.8 | 17.7 | 0.30 | 0.74 | 0.74 | 89 | 1007.7 |
| 20260506145958 | 13 | 147 | 6.4 | 19.3 | 0.28 | 0.66 | 0.66 | 88 | 1007.6 |
| 20260506144458 | 13 | 193 | 4.8 | 14.5 | 0.23 | 0.56 | 0.56 | 88 | 1007.5 |
| 20260506142958 | 12 | 149 | 4.8 | 14.5 | 0.25 | 0.51 | 0.51 | 88 | 1007.6 |
| 20260506141458 | 12 | 193 | 6.4 | 14.5 | 0.23 | 0.43 | 0.43 | 88 | 1007.8 |
| 20260506140000 | 12 | 144 | 8.0 | 20.9 | 0.23 | 0.38 | 0.38 | 87 | 1007.9 |
| 20260506134459 | 12 | 154 | 4.8 | 16.1 | 0.25 | 0.33 | 0.33 | 86 | 1008.0 |
| 20260506133000 | 13 | 156 | 8.0 | 16.1 | 0.23 | 0.25 | 0.25 | 85 | 1008.3 |
| 20260506131459 | 13 | 146 | 6.4 | 16.1 | 0.20 | 0.20 | 0.20 | 84 | 1008.4 |
| 20260506130000 | 13 | 154 | 4.8 | 14.5 | 0.15 | 0.15 | 0.15 | 83 | 1008.7 |
| 20260506124500 | 13 | 129 | 4.8 | 24.1 | 0.08 | 0.08 | 0.08 | 81 | 1008.6 |
| 20260506122959 | 13 | 145 | 8.0 | 19.3 | 0.03 | 0.03 | 0.03 | 80 | 1008.2 |
| 20260506121459 | 14 | 113 | 6.4 | 14.5 | 0.00 | 0.00 | 0.00 | 78 | 1008.2 |
| 20260506115959 | 14 | 128 | 8.0 | 24.1 | 0.00 | 0.00 | 0.00 | 76 | 1008.2 |
| 20260506114458 | 14 | 169 | 6.4 | 16.1 | 0.00 | 0.00 | 0.00 | 75 | 1008.2 |
| 20260506105958 | 14 | 106 | 4.8 | 12.9 | 0.00 | 0.00 | 0.00 | 72 | 1007.9 |
| 20260506102957 | 15 | 148 | 4.8 | 12.9 | 0.00 | 0.00 | 0.00 | 68 | 1007.6 |
| 20260506101458 | 15 | 148 | 4.8 | 14.5 | 0.00 | 0.00 | 0.00 | 66 | 1007.8 |
| 20260506094459 | 15 | 122 | 4.8 | 11.3 | 0.00 | 0.00 | 0.00 | 64 | 1007.8 |
| 20260506092959 | 15 | 154 | 4.8 | 14.5 | 0.00 | 0.00 | 0.00 | 63 | 1007.8 |
| 20260506091500 | 15 | 162 | 4.8 | 11.3 | 0.00 | 0.00 | 0.00 | 62 | 1007.9 |
| 20260506090000 | 15 | 221 | 4.8 | 12.9 | 0.00 | 0.00 | 0.00 | 61 | 1008.0 |
| 20260506084459 | 16 | 135 | 6.4 | 14.5 | 0.00 | 0.00 | 0.00 | 60 | 1008.0 |
| 20260506081459 | 16 | 136 | 6.4 | 16.1 | 0.00 | 0.00 | 0.00 | 58 | 1008.1 |
| 20260506072958 | 16 | 153 | 3.2 | 16.1 | 0.00 | 0.00 | 0.00 | 55 | 1008.2 |
| 20260506061458 | 17 | 213 | 6.4 | 17.7 | 0.00 | 0.00 | 0.00 | 52 | 1008.8 |
| 20260506044500 | 16 | 180 | 6.4 | 16.1 | 0.00 | 0.00 | 0.00 | 50 | 1009.3 |
| 20260506042959 | 16 | 134 | 6.4 | 17.7 | 0.00 | 0.00 | 0.00 | 50 | 1009.3 |
| 20260506041459 | 17 | 197 | 6.4 | 14.5 | 0.00 | 0.00 | 0.00 | 50 | 1009.4 |
| 20260506040004 | 17 | 136 | 6.4 | 17.7 | 0.00 | 0.00 | 0.00 | 49 | 1009.5 |
| 20260506034459 | 17 | 154 | 4.8 | 17.7 | 0.00 | 0.00 | 0.00 | 50 | 1009.5 |
| 20260506032959 | 17 | 188 | 4.8 | 12.9 | 0.00 | 0.00 | 0.00 | 50 | 1009.4 |
| 20260506031459 | 17 | 255 | 3.2 | 8.0 | 0.00 | 0.00 | 0.00 | 50 | 1009.4 |
| 20260506030000 | 18 | 156 | 4.8 | 12.9 | 0.00 | 0.00 | 0.00 | 49 | 1009.4 |
| 20260506024500 | 18 | 221 | 3.2 | 14.5 | 0.00 | 0.00 | 0.00 | 49 | 1009.4 |
| 20260506022959 | 18 | 174 | 3.2 | 12.9 | 0.00 | 0.00 | 0.00 | 49 | 1009.5 |
| 20260506021500 | 18 | 155 | 3.2 | 9.7 | 0.00 | 0.00 | 0.00 | 48 | 1009.6 |
| 20260506020000 | 18 | 139 | 3.2 | 11.3 | 0.00 | 0.00 | 0.00 | 47 | 1009.6 |
| 20260506014459 | 19 | 218 | 3.2 | 11.3 | 0.00 | 0.00 | 0.00 | 46 | 1009.6 |
| 20260506011459 | 20 | 143 | 4.8 | 12.9 | 0.00 | 0.00 | 0.00 | 44 | 1009.2 |
| 20260506010000 | 20 | 156 | 4.8 | 11.3 | 0.00 | 0.00 | 0.00 | 44 | 1009.0 |
| 20260506004458 | 20 | 186 | 3.2 | 9.7 | 0.00 | 0.00 | 0.00 | 43 | 1008.8 |
| 20260506002959 | 21 | 257 | 4.8 | 9.7 | 0.00 | 0.00 | 0.00 | 42 | 1008.8 |
| 20260506001459 | 21 | 165 | 6.4 | 19.3 | 0.00 | 0.00 | 0.00 | 42 | 1008.5 |